Location: Napoli
(40.8639°N, 14.2562°E)
Time: 08:07:38
(UTC+02:00)

ISS - Pass Details

Date: 11 October 2017
Orbit: 401 x 408 km, 51.6° (Epoch: 23 October)

Event Time Altitude Azimuth Distance (km) Brightness Sun altitude
Rises 20:14:58 0° 308° (NW) 2,327 1.0 -20.9°
Reaches altitude 10° 20:17:04 10° 312° (NW) 1,466 -0.2 -21.3°
Enters shadow 20:19:32 44° 336° (NNW) 572 -2.9 -21.7°
